KORONAS-FOTON (33504 NORAD) Tracking and Keplerian Element Data

This shows tracking and keplerian element data for the satellite.

Feedback or suggestion? Click here.




ElementValue
Catalog33504
NameKORONAS-FOTON
Epoch Orbit82521
Epoch Day12.94688065
Epoch Year2024
RAAN0.5451
Inclination82.4388
Eccentricity0.0018497
Argument of Perigee72.8984
Mean Anonmoly287.4276
Mean Motion15.23380972
Decay Rate9.202E-05
L11 33504U 09003A 24012.94688065 .00009202 00000+0 38380-3 0 9999
L22 33504 82.4388 0.5451 0018497 72.8984 287.4276 15.23380972825216



Live tracking and technical data element details for KORONAS-FOTON (NORAD 33504). KORONAS-FOTON can be tracked NOW for your location showing map with azimuth and elevation plus other details from your city location.







IsCatalogInMostPopularTable: catalog: 33504, numindb: 619
Update: records affected: 1



GetName: 33504 KORONAS-FOTON

Hit Count: updated at: Sun, 14 Apr 2024 23:59:30 GMT